TimePDT,TemperatureF,Dew PointF,Humidity,Sea Level PressureIn,VisibilityMPH,Wind Direction,Wind SpeedMPH,Gust SpeedMPH,PrecipitationIn,Events,Conditions,WindDirDegrees,DateUTC
12:53 AM,54.0,54.0,100,30.08,4.0,WSW,5.8,-,N/A,,Overcast,240,2013-08-04 07:53:00
1:24 AM,54.0,52.0,93,30.08,1.8,NW,4.6,-,N/A,,Overcast,310,2013-08-04 08:24:00
1:32 AM,53.1,52.0,96,30.07,0.8,West,4.6,-,N/A,,Mist,280,2013-08-04 08:32:00
1:40 AM,53.1,52.0,96,30.07,0.5,WNW,3.5,-,N/A,Fog,Fog,300,2013-08-04 08:40:00
1:53 AM,52.0,51.1,97,30.07,0.2,NW,4.6,-,N/A,Fog,Fog,310,2013-08-04 08:53:00
2:04 AM,53.1,52.0,96,30.07,0.2,NW,3.5,-,N/A,Fog,Fog,310,2013-08-04 09:04:00
2:38 AM,52.0,52.0,100,30.06,1.0,WNW,4.6,-,N/A,,Mist,300,2013-08-04 09:38:00
2:42 AM,52.0,52.0,100,30.06,3.0,WNW,4.6,-,N/A,,Overcast,290,2013-08-04 09:42:00
2:50 AM,51.8,51.8,100,30.06,1.8,West,6.9,-,N/A,,Overcast,280,2013-08-04 09:50:00
2:53 AM,53.1,51.1,93,30.06,1.2,WNW,5.8,-,N/A,,Overcast,290,2013-08-04 09:53:00
3:02 AM,53.1,52.0,96,30.06,3.0,WNW,5.8,-,N/A,,Mostly Cloudy,290,2013-08-04 10:02:00
3:11 AM,52.0,51.1,97,30.07,10.0,WNW,3.5,-,N/A,,Scattered Clouds,300,2013-08-04 10:11:00
3:49 AM,53.6,51.8,94,30.07,10.0,Calm,Calm,-,N/A,,Mostly Cloudy,0,2013-08-04 10:49:00
3:53 AM,53.1,52.0,96,30.07,10.0,Calm,Calm,-,N/A,,Mostly Cloudy,0,2013-08-04 10:53:00
4:30 AM,53.1,51.1,93,30.07,1.2,WNW,4.6,-,N/A,,Overcast,290,2013-08-04 11:30:00
4:38 AM,53.1,52.0,96,30.07,0.5,West,4.6,-,N/A,Fog,Fog,270,2013-08-04 11:38:00
4:45 AM,53.1,52.0,96,30.07,2.0,West,6.9,-,N/A,,Overcast,280,2013-08-04 11:45:00
4:53 AM,53.1,52.0,96,30.07,1.0,WNW,8.1,-,N/A,,Mist,300,2013-08-04 11:53:00
5:13 AM,53.1,52.0,96,30.07,1.0,West,5.8,-,N/A,,Overcast,280,2013-08-04 12:13:00
5:29 AM,53.1,52.0,96,30.07,1.0,West,3.5,-,N/A,,Mist,270,2013-08-04 12:29:00
5:48 AM,53.6,51.8,94,30.07,1.5,West,3.5,-,N/A,,Overcast,270,2013-08-04 12:48:00
5:53 AM,52.0,51.1,97,30.07,1.5,Calm,Calm,-,N/A,,Overcast,0,2013-08-04 12:53:00
6:00 AM,52.0,52.0,100,30.07,0.2,Calm,Calm,-,N/A,Fog,Fog,0,2013-08-04 13:00:00
6:12 AM,53.1,52.0,96,30.07,0.2,West,3.5,-,N/A,Fog,Fog,280,2013-08-04 13:12:00
6:53 AM,53.1,52.0,96,30.08,0.2,WNW,3.5,-,N/A,Fog,Fog,300,2013-08-04 13:53:00
7:20 AM,53.1,53.1,100,30.08,0.2,Calm,Calm,-,N/A,Fog,Fog,0,2013-08-04 14:20:00
7:30 AM,54.0,53.1,97,30.08,1.0,Calm,Calm,-,N/A,,Overcast,0,2013-08-04 14:30:00
7:43 AM,54.0,53.1,97,30.08,3.0,Calm,Calm,-,N/A,,Overcast,0,2013-08-04 14:43:00
7:53 AM,55.0,54.0,96,30.09,5.0,Calm,Calm,-,N/A,,Overcast,0,2013-08-04 14:53:00
8:34 AM,55.9,54.0,93,30.08,10.0,NNW,3.5,-,N/A,,Scattered Clouds,330,2013-08-04 15:34:00
8:53 AM,57.9,54.0,87,30.08,10.0,Calm,Calm,-,N/A,,Clear,0,2013-08-04 15:53:00
9:53 AM,60.1,53.1,78,30.08,10.0,North,3.5,-,N/A,,Clear,360,2013-08-04 16:53:00
10:53 AM,61.0,53.1,75,30.08,10.0,North,5.8,-,N/A,,Clear,360,2013-08-04 17:53:00
11:53 AM,66.9,55.0,66,30.07,10.0,NE,3.5,-,N/A,,Clear,40,2013-08-04 18:53:00
12:53 PM,69.1,57.9,68,30.07,10.0,Variable,5.8,-,N/A,,Clear,0,2013-08-04 19:53:00
1:53 PM,71.1,55.9,59,30.05,10.0,ENE,5.8,-,N/A,,Clear,60,2013-08-04 20:53:00
2:53 PM,66.9,54.0,63,30.04,10.0,NNE,5.8,-,N/A,,Clear,30,2013-08-04 21:53:00
3:53 PM,68.0,54.0,61,30.02,10.0,North,5.8,-,N/A,,Clear,10,2013-08-04 22:53:00
4:53 PM,66.9,54.0,63,30.01,10.0,WNW,4.6,-,N/A,,Clear,300,2013-08-04 23:53:00
5:53 PM,64.9,55.0,70,30.00,10.0,WNW,8.1,-,N/A,,Clear,300,2013-08-05 00:53:00
6:53 PM,66.0,55.9,70,29.99,10.0,NW,4.6,-,N/A,,Clear,320,2013-08-05 01:53:00
7:53 PM,66.0,57.0,73,29.99,10.0,West,9.2,-,N/A,,Clear,280,2013-08-05 02:53:00
8:53 PM,62.1,55.0,78,29.99,10.0,WNW,10.4,-,N/A,,Clear,290,2013-08-05 03:53:00
9:53 PM,59.0,54.0,83,30.00,10.0,WNW,6.9,-,N/A,,Clear,290,2013-08-05 04:53:00
10:53 PM,57.0,53.1,87,30.01,10.0,West,5.8,-,N/A,,Clear,270,2013-08-05 05:53:00
11:53 PM,54.0,52.0,93,30.00,10.0,WNW,4.6,-,N/A,,Clear,290,2013-08-05 06:53:00